EN

Hourly Weather Bartoszewo

Today, 20 January, Wednesday

Time Temperature Precipitation Wind Pressure Humidity
00:00 +1°C° 0.6 mm 4 mps 750 mmHg 97%
01:00 +1°C° 0 mm 4 mps 749 mmHg 97%
02:00 +3°C° 0.3 mm 4 mps 749 mmHg 95%
03:00 +3°C° 0.3 mm 5 mps 749 mmHg 93%
04:00 +3°C° 0.3 mm 5 mps 749 mmHg 92%
05:00 +3°C° 0 mm 5 mps 749 mmHg 91%
06:00 +2°C° 0 mm 5 mps 749 mmHg 91%
07:00 +1°C° 0 mm 5 mps 749 mmHg 93%
08:00 +1°C° 0.1 mm 5 mps 749 mmHg 92%
09:00 +1°C° 0.1 mm 5 mps 749 mmHg 90%
10:00 +1°C° 0.1 mm 6 mps 749 mmHg 89%
11:00 +2°C° 0.4 mm 6 mps 749 mmHg 86%
12:00 +2°C° 0.4 mm 5 mps 749 mmHg 84%
13:00 +3°C° 0 mm 5 mps 748 mmHg 80%
14:00 +3°C° 0 mm 5 mps 748 mmHg 80%
15:00 +3°C° 0 mm 5 mps 748 mmHg 80%
16:00 +3°C° 0 mm 5 mps 748 mmHg 79%
17:00 +3°C° 0 mm 5 mps 748 mmHg 80%
18:00 +3°C° 0 mm 5 mps 748 mmHg 81%
19:00 +3°C° 0 mm 5 mps 749 mmHg 82%
20:00 +3°C° 0 mm 5 mps 748 mmHg 82%
21:00 +2°C° 0 mm 5 mps 748 mmHg 82%
22:00 +2°C° 0 mm 5 mps 748 mmHg 83%
23:00 +2°C° 0 mm 5 mps 748 mmHg 82%

Tomorrow, 21 January, Thursday

Time Temperature Precipitation Wind Pressure Humidity
00:00 +2°C° 0 mm 5 mps 748 mmHg 82%
01:00 +2°C° 0 mm 6 mps 748 mmHg 82%
02:00 +2°C° 0 mm 6 mps 747 mmHg 80%
03:00 +2°C° 0 mm 6 mps 747 mmHg 78%
04:00 +2°C° 0 mm 6 mps 747 mmHg 76%
05:00 +2°C° 0 mm 6 mps 746 mmHg 75%
06:00 +2°C° 0 mm 6 mps 746 mmHg 74%
07:00 +3°C° 0 mm 6 mps 746 mmHg 73%
08:00 +3°C° 0 mm 7 mps 746 mmHg 70%
09:00 +3°C° 0 mm 7 mps 746 mmHg 67%
10:00 +2°C° 0 mm 8 mps 745 mmHg 63%
11:00 +5°C° 0 mm 8 mps 745 mmHg 63%
12:00 +6°C° 0 mm 8 mps 745 mmHg 64%
13:00 +7°C° 0 mm 8 mps 745 mmHg 64%
14:00 +6°C° 0 mm 7 mps 745 mmHg 69%
15:00 +7°C° 0 mm 6 mps 745 mmHg 73%
16:00 +7°C° 0 mm 5 mps 745 mmHg 78%
17:00 +5°C° 0 mm 6 mps 745 mmHg 78%
18:00 +5°C° 0 mm 6 mps 745 mmHg 79%
19:00 +5°C° 0 mm 6 mps 745 mmHg 79%
20:00 +4°C° 0 mm 6 mps 745 mmHg 80%
21:00 +4°C° 0 mm 6 mps 745 mmHg 82%
22:00 +4°C° 0 mm 6 mps 745 mmHg 84%
23:00 +4°C° 0 mm 6 mps 744 mmHg 84%

Day after tomorrow, 22 January, Friday

Time Temperature Precipitation Wind Pressure Humidity
00:00 +4°C° 0 mm 6 mps 744 mmHg 84%
01:00 +4°C° 0 mm 6 mps 744 mmHg 84%
02:00 +5°C° 0.3 mm 7 mps 743 mmHg 84%
03:00 +5°C° 0.3 mm 8 mps 742 mmHg 84%
04:00 +6°C° 0.3 mm 8 mps 742 mmHg 83%
05:00 +6°C° 0.1 mm 8 mps 741 mmHg 81%
06:00 +5°C° 0.1 mm 9 mps 741 mmHg 79%
07:00 +5°C° 0.1 mm 9 mps 740 mmHg 77%
08:00 +5°C° 0 mm 9 mps 740 mmHg 76%
09:00 +5°C° 0 mm 9 mps 740 mmHg 75%
10:00 +5°C° 0 mm 9 mps 740 mmHg 74%
11:00 +5°C° 0.2 mm 7 mps 741 mmHg 76%
12:00 +4°C° 0.2 mm 6 mps 741 mmHg 77%
13:00 +5°C° 0.2 mm 4 mps 742 mmHg 79%
14:00 +5°C° 0 mm 4 mps 742 mmHg 80%
15:00 +4°C° 0 mm 3 mps 743 mmHg 80%
16:00 +4°C° 0 mm 3 mps 743 mmHg 81%
17:00 +3°C° 0 mm 3 mps 743 mmHg 83%
18:00 +2°C° 0 mm 3 mps 744 mmHg 85%
19:00 +1°C° 0 mm 3 mps 744 mmHg 87%
20:00 +1°C° 0 mm 3 mps 744 mmHg 88%
21:00 +1°C° 0 mm 3 mps 745 mmHg 89%
22:00 +1°C° 0 mm 2 mps 745 mmHg 90%
23:00 +1°C° 0 mm 2 mps 745 mmHg 90%

23 January, Saturday

Time Temperature Precipitation Wind Pressure Humidity
00:00 +1°C° 0 mm 2 mps 745 mmHg 90%
01:00 +2°C° 0 mm 1 mps 745 mmHg 90%
02:00 +2°C° 0 mm 1 mps 745 mmHg 89%
03:00 +2°C° 0 mm 1 mps 745 mmHg 88%
04:00 +2°C° 0 mm 1 mps 744 mmHg 87%
05:00 +2°C° 0 mm 1 mps 744 mmHg 88%
06:00 +1°C° 0 mm 2 mps 744 mmHg 88%
07:00 +1°C° 0 mm 2 mps 744 mmHg 88%
08:00 +2°C° 0 mm 2 mps 744 mmHg 86%
09:00 +1°C° 0 mm 3 mps 743 mmHg 84%
10:00 0°C° 0 mm 4 mps 743 mmHg 83%
11:00 0°C° 0.2 mm 5 mps 742 mmHg 84%
12:00 0°C° 0.2 mm 5 mps 742 mmHg 85%
13:00 -1°C° 0.2 mm 6 mps 741 mmHg 86%
14:00 -1°C° 1.9 mm 7 mps 740 mmHg 89%
15:00 -1°C° 1.9 mm 7 mps 740 mmHg 93%
16:00 -2°C° 1.9 mm 8 mps 739 mmHg 97%
17:00 -3°C° 2.2 mm 9 mps 739 mmHg 96%
18:00 -3°C° 2.2 mm 9 mps 739 mmHg 96%
19:00 -3°C° 2.2 mm 10 mps 739 mmHg 96%
20:00 -3°C° 1.5 mm 9 mps 740 mmHg 96%
21:00 -3°C° 1.5 mm 9 mps 740 mmHg 96%
22:00 -3°C° 1.5 mm 9 mps 740 mmHg 96%
23:00 -2°C° 0.3 mm 8 mps 741 mmHg 95%

24 January, Sunday

Time Temperature Precipitation Wind Pressure Humidity
00:00 -2°C° 0.3 mm 7 mps 741 mmHg 93%
01:00 -1°C° 0.3 mm 6 mps 742 mmHg 92%
02:00 -1°C° 0 mm 5 mps 743 mmHg 92%
03:00 -1°C° 0 mm 5 mps 743 mmHg 93%
04:00 -2°C° 0 mm 5 mps 744 mmHg 94%
05:00 -2°C° 0 mm 4 mps 744 mmHg 94%
06:00 -2°C° 0 mm 4 mps 745 mmHg 94%
07:00 -1°C° 0 mm 3 mps 746 mmHg 94%
08:00 -1°C° 0 mm 3 mps 746 mmHg 93%
09:00 -1°C° 0 mm 3 mps 746 mmHg 91%
10:00 -1°C° 0 mm 3 mps 747 mmHg 90%
11:00 -1°C° 0 mm 2 mps 747 mmHg 89%
12:00 +1°C° 0 mm 2 mps 747 mmHg 88%
13:00 +1°C° 0 mm 2 mps 747 mmHg 87%
14:00 +1°C° 0 mm 2 mps 747 mmHg 88%
15:00 +1°C° 0 mm 1 mps 748 mmHg 89%
16:00 +1°C° 0 mm 1 mps 748 mmHg 91%
17:00 0°C° 0 mm 1 mps 748 mmHg 91%
18:00 0°C° 0 mm 1 mps 748 mmHg 91%
19:00 0°C° 0 mm 1 mps 748 mmHg 91%
20:00 0°C° 0 mm 1 mps 748 mmHg 91%
21:00 0°C° 0 mm 1 mps 748 mmHg 91%
22:00 -1°C° 0 mm 1 mps 748 mmHg 91%
23:00 -1°C° 0 mm 1 mps 748 mmHg 91%

25 January, Monday

Time Temperature Precipitation Wind Pressure Humidity
00:00 -1°C° 0 mm 1 mps 748 mmHg 91%
01:00 -1°C° 0 mm 1 mps 748 mmHg 91%
02:00 -1°C° 0 mm 1 mps 748 mmHg 91%
03:00 -1°C° 0 mm 1 mps 748 mmHg 91%
04:00 -1°C° 0 mm 1 mps 748 mmHg 90%
05:00 -1°C° 0 mm 1 mps 748 mmHg 90%
06:00 -1°C° 0 mm 1 mps 749 mmHg 90%
07:00 -1°C° 0 mm 1 mps 749 mmHg 90%
08:00 -2°C° 0 mm 0 mps 750 mmHg 88%
09:00 -1°C° 0 mm 0 mps 750 mmHg 86%
10:00 -1°C° 0 mm 0 mps 750 mmHg 84%
11:00 0°C° 0 mm 0 mps 751 mmHg 82%
12:00 +1°C° 0 mm 0 mps 751 mmHg 79%
13:00 +1°C° 0 mm 0 mps 751 mmHg 77%
14:00 +2°C° 0 mm 1 mps 752 mmHg 80%
15:00 +1°C° 0 mm 1 mps 752 mmHg 83%
16:00 0°C° 0 mm 1 mps 752 mmHg 86%
17:00 0°C° 0 mm 1 mps 752 mmHg 87%
18:00 0°C° 0 mm 1 mps 753 mmHg 88%
19:00 -1°C° 0 mm 1 mps 753 mmHg 88%
20:00 -1°C° 0 mm 1 mps 753 mmHg 89%
21:00 -3°C° 0 mm 2 mps 754 mmHg 90%
22:00 -3°C° 0 mm 2 mps 754 mmHg 91%
23:00 -3°C° 0 mm 2 mps 754 mmHg 92%
Show more

We Need Your Consent

Meteoprog and our Service Providers may store and access personal data such as cookies, device identifiers or other similar technologies on your device and process such data to personalise content and ads, as well as provide social media features and to analyse the traffic.

  • Store and/or access information on your device

    Cookies, device identifiers or other information can be stored or accessed on your device for the purposes indicated above.

  • Personalised ads and content, ad and content measurement, audience insights, and products development

    Ads and content can be personalised based on a profile. More data can be added to better personalise ads and content. Ad and content performance can be measured. Insights about the audience who saw the ads and content can be derived. Such data can be used to develop or improve user’s experience, systems and software.

By clicking ‘I Agree’ you will allow the use of indicated cookies, device identifiers, web beacons or other similar technologies. Your settings can be changed in the browser on your device.

For certain purposes, legitimate interests may be relied on, rather than consent. You can read more about this in our Privacy and Cookie Policy.